Regional Weather Roundup
Issued by NWS

Home | Current Version | Previous Version | Graphics & Text | Print | Product List | Glossary On
Versions: 1 2 3 4 5 6 7 8 9 10 11 12 13 14 15 16 17 18 19 20 21 22 23 24 25 26 27 28 29 30 31 32 33 34 35 36 37 38 39 40 41 42 43 44 45 46 47 48 49 50
000
ASUS43 KIND 291709
RWRIN

WEATHER ROUNDUP FOR INDIANA
NATIONAL WEATHER SERVICE INDIANAPOLIS IN
100 PM EDT FRI MAY 29 2015

NOTE: "FAIR" INDICATES FEW OR NO CLOUDS BELOW 12,000 FEET WITH NO
SIGNIFICANT WEATHER AND/OR OBSTRUCTIONS TO VISIBILITY.

* - STATION DOES NOT REPORT WEATHER SUCH AS PRECIPITATION OR FOG.

+ - STATION NOT QUALITY CONTROLLED BY THE NATIONAL WEATHER SERVICE.
    USE DATA WITH CAUTION...ESPECIALLY DEWPOINT AND RELATIVE
    HUMIDITY OBSERVATIONS.

INZ001>003-010>013-019-020-291800-
NORTHWEST INDIANA

CITY           SKY/WX    TMP DP  RH WIND       PRES   REMARKS
GARY /AIRPORT/ LGT RAIN  81  64  57 S14G28    30.02F
KNOX *+        PTSUNNY   82  61  47 S16       30.04F
LA PORTE +     PTSUNNY   82  63  52 S12G21    30.05F
MICHIGAN CITY+ PTSUNNY   81  61  50 S12G21    30.04F
MONTICELLO +   PTSUNNY   80  67  64 S8        30.07F
RENSSELAER +   CLOUDY    81  63  54 S15       30.05F
VALPARAISO     MOSUNNY   81  64  56 S14G23    30.04F

$$

LMZ046-743>745-291800-
SOUTHERN LAKE MICHIGAN

STATION/POSITION TIME  TEMP    WIND        PRES    WAVE
                       AIR SEA DIR/SP/G            HT
                 (UTC) (F)     (DEG/KT/KT) (MB)    (FT)
BURNS HARBOR     1700   78     200/ 13/ 18 1016.9F
MICHIGAN CITY    1700   79     160/ 14/ 17   N/A
5NW MICH CITY    1700   71 56  210/  8/ 10   N/A     1

$$

INZ004-005-014>016-021>024-291800-
NORTH CENTRAL INDIANA

CITY           SKY/WX    TMP DP  RH WIND       PRES   REMARKS
GOSHEN         MOSUNNY   82  64  54 S16       30.08F
LOGANSPORT +   PTSUNNY   81  59  47 S13       30.09F
PERU/GRISSOM   MOSUNNY   80  65  61 S12G17    30.08F
ROCHESTER +    MOSUNNY   82  68  61 S9        30.09F
SOUTH BEND     PTSUNNY   82  64  54 S14G21    30.06F
WARSAW +       MOSUNNY   79  64  61 SW7       30.10F

$$

INZ006>009-017-018-025>027-291800-
NORTHEAST INDIANA

CITY           SKY/WX    TMP DP  RH WIND       PRES   REMARKS
ANGOLA *+      MOSUNNY   82  77  83 S8        30.10S
AUBURN +       MOSUNNY   79  63  57 SW6       30.12S
FORT WAYNE     PTSUNNY   80  65  59 SW12      30.11F
HUNTINGTON +   PTSUNNY   79  64  61 S8        30.11F

$$

INZ028-029-035-036-043>045-051>053-291800-
WEST CENTRAL INDIANA

CITY           SKY/WX    TMP DP  RH WIND       PRES   REMARKS
CRAWFORDSVL +  MOSUNNY   80  58  47 S14       30.09F
GREENCASTLE +  MOSUNNY   77  63  61 S10       30.11F
LAFAYETTE      PTSUNNY   81  64  56 S13       30.07F
TERRE HAUTE    MOSUNNY   83  66  56 SW12G22   30.09F

$$

INZ030>032-037>040-046>048-054>057-064-065-291800-
CENTRAL INDIANA

CITY           SKY/WX    TMP DP  RH WIND       PRES   REMARKS
ANDERSON       PTSUNNY   81  59  47 SW12G17   30.14F
CP ATTERBURY + PTSUNNY   79  66  65 S10G16    30.13F
COLUMBUS       PTSUNNY   79  66  65 S13       30.13F
FISHERS *+     PTSUNNY   77  68  73 W8        30.11
FRANKFORT +    MOSUNNY   83  63  50 S7        30.11F
GREENWOOD *+   MOSUNNY   81  63  54 SW13G22   30.13F
INDIANAPOLIS   PTSUNNY   80  66  62 SW10      30.10F
-EAGLE CREEK   PTSUNNY   80  65  59 S9        30.09F
KOKOMO *+      MOSUNNY   82  64  54 SW13G18   30.09F
MARION +       MOSUNNY   81  61  50 SW12G18   30.12F
MT COMFORT *+  MOSUNNY   81  55  41 S13       30.12F
SHELBYVILLE    PTSUNNY   83  67  58 S15G23    30.12F
ZIONSVILLE +   MOSUNNY   82  62  49 S12G18    30.11F

$$

INZ033-034-041-042-049-050-058-059-291800-
EAST CENTRAL INDIANA

CITY           SKY/WX    TMP DP  RH WIND       PRES   REMARKS
MUNCIE         MOSUNNY   82  64  54 S12       30.12F

$$

INZ060-061-067>069-081>083-085>088-291800-
SOUTHWEST INDIANA

CITY           SKY/WX    TMP DP  RH WIND       PRES   REMARKS
EVANSVILLE     PTSUNNY   79  67  66 S10       30.13F
HUNTINGBURG *+   N/A    N/A N/A N/A MISG        N/A
WASHINGTON +   CLOUDY    76  66  72 S10       30.12F

$$

INZ062-063-066-070>080-084-089>092-291800-
SOUTH CENTRAL AND SOUTHEAST INDIANA

CITY           SKY/WX    TMP DP  RH WIND       PRES   REMARKS
BLOOMINGTON    CLOUDY    76  67  73 SW9       30.13F
MADISON *+     PTSUNNY   77  63  61 S13       30.18F
NORTH VERNON + MOSUNNY   81  66  61 S10       30.15F
SEYMOUR +      PTSUNNY   84  64  51 S14G22    30.14S

$$




USA.gov is the U.S. government's official web portal to all federal, state and local government web resources and services.